Regional Weather Roundup
Issued by NWS

Home | Current Version | Previous Version | Text Only | Print | Product List | Glossary On
Versions: 1 2 3 4 5 6 7 8 9 10 11 12 13 14 15 16 17 18 19 20 21 22 23 24 25 26 27 28 29 30 31 32 33 34 35 36 37 38 39 40 41 42 43 44 45 46 47 48 49 50
000
ASUS43 KDTX 231301
RWRMI
MICHIGAN HOURLY REGIONAL WEATHER ROUNDUP
NATIONAL WEATHER SERVICE DETROIT/PONTIAC MI
800 AM EST THU NOV 23 2017

NOTE: "FAIR" INDICATES FEW OR NO CLOUDS BELOW 12,000 FEET WITH NO
SIGNIFICANT WEATHER AND/OR OBSTRUCTION TO VISIBILITY.

MIZ047>049-052>055-059>063-066>070-074>076-081>083-231400-
SOUTHEAST LOWER MICHIGAN

CITY           SKY/WX    TMP DP  RH WIND       PRES   REMARKS
ADRIAN         CLOUDY    28  24  85 SW8       30.12R WCI  20
ALMA           CLOUDY    32  24  73 S6        30.05S WCI  26
ANN ARBOR      CLOUDY    27  24  89 S3        30.10R
BAD AXE        CLOUDY    31  21  68 SW7       30.04F WCI  24
CARO           CLOUDY    31  23  71 S9        30.05S WCI  23
DETROIT CITY   CLOUDY    30  22  72 SW9       30.12R WCI  22
DETROIT        MOCLDY    28  23  81 S7        30.12R WCI  21
FLINT          CLOUDY    30  21  69 SW7       30.07F WCI  23
GROSSE ILE     CLOUDY    31  23  73 SW6       30.11R WCI  25
HILLSDALE      CLOUDY    30  21  69 S6        30.07S WCI  24
HOWELL         CLOUDY    29  23  78 S3        30.07S

CITY           SKY/WX    TMP DP  RH WIND       PRES   REMARKS
JACKSON        CLOUDY    31  19  61 S8        30.07S WCI  23
LAMBERTVILLE   CLOUDY    31  24  77 SW3       30.13R
LANSING        CLOUDY    30  20  66 SW9       30.07S WCI  22
LAPEER         CLOUDY    31  22  68 SW7       30.07S WCI  24
MASON          CLOUDY    32  21  63 S5        30.07S WCI  27
MONROE         CLOUDY    30  24  77 S3        30.12R
MT. CLEMENS    CLOUDY    31  24  75 SW6       30.09R WCI  25
PONTIAC        CLOUDY    28  22  78 SW5       30.07S WCI  23
PORT HOPE        N/A     32  21  64 SW8       30.02S WCI  25
PORT HURON     CLOUDY    30  21  69 SW5       30.10R WCI  25
TRI CITIES     CLOUDY    33  24  69 SW10      30.05F WCI  25
MIDLAND        CLOUDY    32  24  71 SW5       30.04S WCI  28
TROY           CLOUDY    31  23  72 S6        30.12R WCI  25
SAGINAW HB     CLOUDY    32  25  74 S10       30.05F WCI  24
$$
MIZ043>046-050>051-056>058-064>065-071>073-077>080-231400-
SOUTHWEST LOWER MICHIGAN

CITY           SKY/WX    TMP DP  RH WIND       PRES   REMARKS
BATTLE CREEK   CLOUDY    31  20  63 SW8       30.07S WCI  23
BENTON HARBOR  CLOUDY    32  19  58 S7        30.07S WCI  26
BIG RAPIDS     CLOUDY    31  25  77 S3        29.99F
COLDWATER      CLOUDY    30  22  72 SW6       30.08S WCI  24
FREMONT        CLOUDY    35  25  68 SW6       30.00F WCI  30
HOLLAND        CLOUDY    33  23  66 S7        30.05S WCI  27
GRAND RAPIDS   CLOUDY    32  24  72 S9        30.04S WCI  24
IONIA          CLOUDY    32  23  68 SW8       30.05R WCI  25
KALAMAZOO      CLOUDY    31  18  58 SW9       30.08S WCI  23
LUDINGTON      CLOUDY    36  24  61 SW10      29.98F WCI  29
MARSHALL       CLOUDY    30  19  64 S5        30.06F WCI  25
MOUNT PLEASANT CLOUDY    33  24  68 S6        30.02F WCI  27
MUSKEGON       CLOUDY    38  25  59 SW10      30.02F WCI  31
SOUTH HAVEN    CLOUDY    33  20  59 S6        30.06S WCI  28
$$
MIZ016>042-231400-
NORTHERN LOWER MICHIGAN

CITY           SKY/WX    TMP DP  RH WIND       PRES   REMARKS
ALPENA         CLOUDY    30  24  78 SW7       29.97F WCI  23
BEAVER ISLAND  CLOUDY    33  29  86 W15       29.93S WCI  23
BELLAIRE       FLURRIES  32  32  99 SW5       29.97S WCI  28
CADILLAC       CLOUDY    28  27  93 SW8       29.95F WCI  20
CHARLEVOIX     LGT RAIN  33  31  91 SW9       29.97S WCI  26
FRANKFORT      CLOUDY    37  25  60 W7        29.97S WCI  32
GAYLORD        CLOUDY    28  24  85 SW15      29.92S WCI  16
GRAYLING       CLOUDY    29  26  86 SW8       29.96S WCI  21
HARBOR SPRINGS RAIN      33  32  96 SW13G21   29.92F WCI  24
HOUGHTON LAKE  CLOUDY    29  24  82 SW10      29.97F WCI  20
MANISTEE       CLOUDY    33  24  69 S3        29.98F
OSCODA         CLOUDY    31  22  72 SW9       30.00S WCI  22
PELLSTON       CLOUDY    34  30  85 W8        29.92F WCI  27
ROGERS CITY    CLOUDY    30  24  77 S6        29.95F WCI  24
TRAVERSE CITY  CLOUDY    33  28  81 S5        29.96S WCI  29
$$
MIZ007>008-015-231400-
EASTERN UPPER MICHIGAN

CITY           SKY/WX    TMP DP  RH WIND       PRES   REMARKS
KINROSS        FLURRIES  26  22  84 W5        29.91F WCI  20
MACKINAC ISLAN CLOUDY    35  28  76 W17G25    29.90F WCI  24
NEWBERRY       CLOUDY    26  21  83 SW6       29.89F WCI  19
S. S. MARIE    CLOUDY    28  21  75 VRB6      29.90S WCI  22
MUNISING         N/A     28  20  71 S5        29.89F WCI  23
$$
MIZ004>006-011>014-085-231400-
CENTRAL UPPER MICHIGAN

CITY           SKY/WX    TMP DP  RH WIND       PRES   REMARKS
MANISTIQUE     CLOUDY    28  17  65 SW5       29.91F WCI  22
ESCANABA       CLOUDY    29  21  72 SW7       29.93F WCI  22
MENOMINEE      CLOUDY    29  22  75 SW5       29.96F WCI  24
SAWYER-GWINN   CLOUDY    25  19  80 SW7       29.87F WCI  17
$$
MIZ001>003-009>011-084-231400-
WESTERN UPPER MICHIGAN

CITY           SKY/WX    TMP DP  RH WIND       PRES   REMARKS
IRON MOUNTAIN  CLOUDY    27  17  66 SW3       29.88F
HOUGHTON       CLOUDY    28  21  75 SW9       29.82F WCI  19
COPPER HARBOR    N/A     30  24  78 VRB3      29.82F
IRONWOOD       CLOUDY    23  18  81 SW7       29.88F WCI  15
$$

ABBREVIATIONS USED IN REMARKS
   TC - TEMPERATURE IN CELSIUS
  WCI - WIND CHILL INDEX
   HX - HEAT INDEX
  VSB - VISIBILITY





USA.gov is the U.S. government's official web portal to all federal, state and local government web resources and services.